Date String (YYYY-MM-DD hh:mm:ss) UTC,Instrument flags,Ambient pressure (hPa),Sample flow (lpm),Bypass flow (lpm),Sample temperature (°C),Ambient temperature (°C),ASC tube jacket temperature (°C),LED temperature (°C),Box temperature (°C),Sample RH (%),Span deviation,Mass concentration (μg/m³),Mass concentration (μg/m³),Mass concentration (μg/m³)
DateTimeUTC,F1_M11,P_M11,Q1_M11,Q2_M11,T1_M11,T2_M11,T3_M11,T4_M11,T5_M11,U1_M11,ZSPAN_M11,X0_M11,X2_M11,X1_M11
2022-10-30 19:00:00,,0826.9,4.98,0.00,27.4,26.2,00.0,36.0,29.3,07.9,0000.0,0008.29,0003.84,0003.56
2022-10-30 19:01:00,,0826.9,5.02,0.00,27.4,26.2,00.0,36.1,29.3,07.9,0000.0,0008.43,0003.83,0003.55
2022-10-30 19:02:00,,0826.9,4.98,0.00,27.4,26.2,00.0,36.1,29.3,07.7,0000.0,0008.93,0003.79,0003.52
2022-10-30 19:03:00,,0827.1,5.00,0.00,27.4,26.2,00.0,36.1,29.3,07.8,0000.0,0008.82,0003.78,0003.49
2022-10-30 19:04:00,,0826.9,5.01,0.00,27.4,26.3,00.0,36.1,29.3,07.9,0000.0,0008.52,0003.73,0003.46
2022-10-30 19:05:00,,0826.8,5.00,0.00,27.4,26.3,00.0,36.1,29.3,07.7,0000.0,0008.92,0003.69,0003.43
2022-10-30 19:06:00,,0826.9,5.01,0.00,27.5,26.3,00.0,36.1,29.4,07.9,0000.0,0008.95,0003.67,0003.40
2022-10-30 19:07:00,,0826.8,4.98,0.00,27.5,26.3,00.0,36.2,29.4,07.7,0000.0,0008.92,0003.64,0003.37
2022-10-30 19:08:00,,0826.8,5.01,0.00,27.5,26.3,00.0,36.2,29.4,07.5,0000.0,0008.94,0003.62,0003.34
2022-10-30 19:09:00,,0826.8,5.00,0.00,27.5,26.4,00.0,36.2,29.4,07.4,0000.0,0008.94,0003.58,0003.30
2022-10-30 19:10:00,,0826.8,5.00,0.00,27.5,26.4,00.0,36.2,29.4,07.1,0000.0,0008.92,0003.52,0003.24
2022-10-30 19:11:00,,0826.8,5.01,0.00,27.5,26.4,00.0,36.2,29.5,07.0,0000.0,0008.68,0003.45,0003.18
2022-10-30 19:12:00,,0826.7,4.99,0.00,27.5,26.4,00.0,36.2,29.5,07.2,0000.0,0008.60,0003.40,0003.13
2022-10-30 19:13:00,,0826.8,5.00,0.00,27.6,26.4,00.0,36.3,29.5,07.3,0000.0,0008.29,0003.35,0003.06
2022-10-30 19:14:00,,0826.7,5.00,0.00,27.6,26.5,00.0,36.3,29.5,07.4,0000.0,0007.94,0003.29,0002.98
2022-10-30 19:15:00,,0826.7,5.01,0.00,27.6,26.5,00.0,36.3,29.5,07.3,0000.0,0008.15,0003.26,0002.94
2022-10-30 19:16:00,,0826.6,5.01,0.00,27.6,26.5,00.0,36.3,29.5,07.6,0000.0,0007.70,0003.25,0002.90
2022-10-30 19:17:00,,0826.7,4.99,0.00,27.6,26.5,00.0,36.3,29.5,07.7,0000.0,0007.47,0003.22,0002.86
2022-10-30 19:18:00,,0826.6,5.01,0.00,27.6,26.5,00.0,36.3,29.6,07.7,0000.0,0007.41,0003.22,0002.86
2022-10-30 19:19:00,,0826.6,5.01,0.00,27.7,26.5,00.0,36.3,29.6,07.7,0000.0,0007.23,0003.19,0002.86
2022-10-30 19:20:00,,0826.6,5.00,0.00,27.7,26.5,00.0,36.4,29.6,07.8,0000.0,0007.07,0003.18,0002.86
2022-10-30 19:21:00,,0826.5,5.00,0.00,27.7,26.6,00.0,36.4,29.6,07.8,0000.0,0006.39,0003.19,0002.87
2022-10-30 19:22:00,,0826.5,5.00,0.00,27.7,26.6,00.0,36.4,29.7,07.9,0000.0,0005.48,0003.20,0002.89
2022-10-30 19:23:00,,0826.5,4.98,0.00,27.7,26.6,00.0,36.4,29.6,07.8,0000.0,0005.70,0003.22,0002.92
2022-10-30 19:24:00,,0826.6,5.01,0.00,27.8,26.6,00.0,36.4,29.6,07.9,0000.0,0006.43,0003.24,0002.94
2022-10-30 19:25:00,,0826.5,5.01,0.00,27.8,26.6,00.0,36.5,29.7,07.9,0000.0,0006.47,0003.24,0002.96
2022-10-30 19:26:00,,0826.5,5.00,0.00,27.8,26.7,00.0,36.5,29.7,07.8,0000.0,0006.06,0003.24,0002.95
2022-10-30 19:27:00,,0826.5,5.00,0.00,27.8,26.7,00.0,36.5,29.7,07.7,0000.0,0005.84,0003.22,0002.93
2022-10-30 19:28:00,,0826.5,4.98,0.00,27.8,26.7,00.0,36.5,29.7,07.5,0000.0,0005.93,0003.22,0002.91
2022-10-30 19:29:00,,0826.5,5.02,0.00,27.8,26.7,00.0,36.5,29.8,07.3,0000.0,0006.06,0003.21,0002.88
2022-10-30 19:30:00,,0826.5,4.99,0.00,27.8,26.7,00.0,36.5,29.8,07.3,0000.0,0006.20,0003.21,0002.85
2022-10-30 19:31:00,,0826.5,5.01,0.00,27.8,26.7,00.0,36.5,29.8,07.4,0000.0,0007.33,0003.21,0002.84
2022-10-30 19:32:00,,0826.5,4.98,0.00,27.8,26.7,00.0,36.6,29.8,07.4,0000.0,0007.65,0003.22,0002.84
2022-10-30 19:33:00,,0826.5,5.00,0.00,27.9,26.7,00.0,36.6,29.8,07.4,0000.0,0007.67,0003.23,0002.85
2022-10-30 19:34:00,,0826.5,5.01,0.00,27.9,26.7,00.0,36.6,29.8,07.5,0000.0,0007.48,0003.23,0002.85
2022-10-30 19:35:00,,0826.5,5.01,0.00,27.9,26.7,00.0,36.6,29.8,07.4,0000.0,0006.60,0003.22,0002.84
2022-10-30 19:36:00,,0826.5,4.98,0.00,27.9,26.7,00.0,36.6,29.8,07.4,0000.0,0006.40,0003.21,0002.82
2022-10-30 19:37:00,,0826.4,5.01,0.00,27.9,26.8,00.0,36.6,29.8,07.5,0000.0,0006.42,0003.20,0002.84
2022-10-30 19:38:00,,0826.5,5.01,0.00,27.9,26.8,00.0,36.7,29.9,07.5,0000.0,0007.21,0003.25,0002.91
2022-10-30 19:39:00,,0826.4,5.01,0.00,27.9,26.8,00.0,36.7,29.9,07.5,0000.0,0007.41,0003.30,0003.00
2022-10-30 19:40:00,,0826.4,5.00,0.00,28.0,26.7,00.0,36.7,29.9,07.5,0000.0,0007.40,0003.33,0003.08
2022-10-30 19:41:00,,0826.4,4.97,0.00,28.0,26.7,00.0,36.7,29.8,07.4,0000.0,0008.01,0003.37,0003.15
2022-10-30 19:42:00,,0826.3,5.00,0.00,27.9,26.6,00.0,36.7,29.8,07.4,0000.0,0007.37,0003.43,0003.20
2022-10-30 19:43:00,,0826.2,4.99,0.00,28.0,26.6,00.0,36.7,29.8,07.6,0000.0,0007.50,0003.48,0003.23
2022-10-30 19:44:00,,0826.2,5.00,0.00,28.0,26.7,00.0,36.7,29.8,07.5,0000.0,0008.05,0003.50,0003.27
2022-10-30 19:45:00,,0826.2,5.00,0.00,28.0,26.7,00.0,36.7,29.9,07.5,0000.0,0008.55,0003.55,0003.30
2022-10-30 19:46:00,,0826.2,5.00,0.00,28.0,26.8,00.0,36.7,29.9,07.6,0000.0,0008.59,0003.59,0003.35
2022-10-30 19:47:00,,0826.2,5.00,0.00,28.0,26.8,00.0,36.7,29.9,07.6,0000.0,0008.72,0003.65,0003.39
2022-10-30 19:48:00,,0826.2,5.00,0.00,28.0,26.8,00.0,36.7,29.9,07.7,0000.0,0008.93,0003.72,0003.43
2022-10-30 19:49:00,,0826.1,5.00,0.00,28.0,26.9,00.0,36.8,29.9,07.8,0000.0,0009.10,0003.74,0003.45
2022-10-30 19:50:00,,0826.2,4.99,0.00,28.0,26.8,00.0,36.8,29.9,07.9,0000.0,0009.00,0003.75,0003.47
2022-10-30 19:51:00,,0826.2,5.00,0.00,28.0,26.8,00.0,36.8,29.9,07.9,0000.0,0008.97,0003.75,0003.48
2022-10-30 19:52:00,,0826.2,5.00,0.00,28.1,26.9,00.0,36.8,29.9,07.7,0000.0,0008.48,0003.77,0003.49
2022-10-30 19:53:00,,0826.2,5.00,0.00,28.1,26.8,00.0,36.8,30.0,07.7,0000.0,0008.27,0003.76,0003.49
2022-10-30 19:54:00,,0826.2,5.00,0.00,28.1,26.9,00.0,36.8,30.0,07.8,0000.0,0008.03,0003.75,0003.50
2022-10-30 19:55:00,,0826.2,5.01,0.00,28.1,26.9,00.0,36.8,30.0,07.7,0000.0,0007.55,0003.77,0003.51
2022-10-30 19:56:00,,0826.2,4.99,0.00,28.1,26.9,00.0,36.8,30.0,07.8,0000.0,0006.89,0003.78,0003.53
2022-10-30 19:57:00,,0826.2,4.99,0.00,28.1,26.9,00.0,36.8,30.0,07.6,0000.0,0006.90,0003.79,0003.54
2022-10-30 19:58:00,,0826.2,5.00,0.00,28.1,26.9,00.0,36.8,30.0,07.5,0000.0,0006.90,0003.80,0003.55
2022-10-30 19:59:00,,0826.1,5.00,0.00,28.1,26.9,00.0,36.8,30.0,07.7,0000.0,0007.60,0003.81,0003.56
